Date,TemperatureHighF,TemperatureAvgF,TemperatureLowF,DewpointHighF,DewpointAvgF,DewpointLowF,HumidityHigh,HumidityAvg,HumidityLow,PressureMaxIn,PressureMinIn,WindSpeedMaxMPH,WindSpeedAvgMPH,GustSpeedMaxMPH,PrecipitationSumIn
2013-2-1,31.2,27.9,24.9,11.9,7.3,5.0,56,41,34,29.90,29.62,27,9,27,0.00
2013-2-4,27.6,24.3,20.1,13.7,8.9,3.6,73,52,39,29.80,29.68,29,10,29,0.00
2013-2-5,27.3,24.0,19.8,16.0,10.3,7.1,67,56,48,29.96,29.88,11,3,11,0.00
2013-2-6,36.7,30.9,22.2,24.4,19.8,12.4,91,65,46,30.08,29.89,21,6,23,0.02
2013-2-7,27.0,22.6,15.2,2.5,0.5,-1.3,54,38,31,30.46,30.36,16,4,16,0.00
2013-2-8,30.5,26.5,21.4,27.4,23.5,19.0,94,88,77,30.29,29.81,24,8,25,0.00
2013-2-9,20.3,17.1,14.0,16.5,10.7,0.9,91,77,55,30.13,29.54,25,11,38,0.00
2013-2-10,39.8,21.3,5.1,14.8,3.1,-3.1,81,50,17,30.33,30.13,12,3,22,0.00
2013-2-11,39.8,31.2,19.4,38.2,27.6,12.8,95,87,67,30.18,29.62,8,1,9,0.25
2013-2-12,42.7,39.1,34.0,28.1,27.3,25.4,76,63,54,29.71,29.59,29,10,32,0.00
2013-2-13,41.5,36.0,26.0,24.5,23.2,20.4,81,60,48,29.80,29.67,14,4,15,0.00
2013-2-14,43.6,35.8,28.3,25.4,21.4,19.3,80,57,39,29.91,29.63,15,3,15,0.00
2013-2-15,51.2,42.6,30.0,34.2,31.2,27.1,91,66,49,29.93,29.82,19,6,22,0.00
2013-2-16,36.5,32.6,28.0,29.1,25.1,15.7,93,75,53,29.88,29.66,10,4,17,0.02
2013-2-17,28.1,20.3,15.7,17.5,9.1,-0.4,87,63,43,29.66,29.33,27,12,38,0.00
2013-2-18,29.7,23.5,13.3,1.4,-1.0,-4.7,54,35,23,30.02,29.79,33,12,36,0.00
2013-2-19,45.5,38.1,23.4,38.4,24.1,6.7,90,58,45,30.06,29.67,15,5,17,0.03
2013-2-20,40.6,32.2,26.7,39.0,21.0,10.0,94,65,42,29.64,29.46,27,10,29,0.00
2013-2-21,30.5,26.7,22.9,13.0,11.1,8.8,61,51,46,29.96,29.73,27,11,27,0.00
2013-2-22,37.2,32.4,23.1,23.2,19.4,16.7,82,59,48,30.33,30.25,15,5,15,0.00
2013-2-25,38.9,34.3,28.9,31.1,28.5,24.9,92,79,68,30.13,29.94,8,2,10,0.13
2013-2-26,40.6,36.4,26.6,34.0,28.5,25.1,95,74,59,30.27,30.20,15,5,15,0.00
2013-2-27,39.9,38.2,35.4,37.8,36.1,33.6,93,92,91,29.93,29.60,31,14,37,1.17
2013-2-28,45.6,38.6,32.2,37.3,33.7,30.4,94,83,70,29.59,29.47,7,2,9,0.01